Location: Lecco
(45.8566°N, 9.3977°E)
Time: 22:05:44
(UTC+02:00)

Vanguard 1 Rocket - Pass Details

Date: 22 August 2020
Orbit: 655 x 4221 km, 34.3° (Epoch: 30 September)

Event Time Altitude Azimuth Distance (km) Brightness Sun altitude
Exits shadow 03:35:07 28° 187° (S) 4,269 10.3 -25.5°
Maximum altitude 03:39:50 32° 161° (SSE) 3,568 10.1 -25.0°
Drops below altitude 10° 03:49:10 10° 103° (ESE) 3,924 10.9 -24.0°
Sets 03:52:03 0° 93° (E) 4,532 11.5 -23.7°
